This is the latest recevied weather packets stored in our database for station/object IK4NOW-13. If no packets are shown the sender has not sent any weather packets the latest 10 day(s).
| Time | Temp. | Humidity | Pressure | Rain* | Wind** | Luminosity | Snow |
|---|---|---|---|---|---|---|---|
| 1776960739 | 19.44° C | 52% | 1020 hPa | - | - | - | - |
| 1776958034 | 19.44° C | 53% | 1020.6 hPa | - | - | - | - |
| 1776955328 | 20° C | 54% | 1021.1 hPa | - | - | - | - |
| 1776952623 | 20° C | 53% | 1021.6 hPa | - | - | - | - |
| 1776949918 | 19.44° C | 54% | 1022.5 hPa | - | - | - | - |
| 1776947213 | 19.44° C | 55% | 1023.1 hPa | - | - | - | - |
| 1776944509 | 18.89° C | 56% | 1023.6 hPa | - | - | - | - |
| 1776941805 | 18.33° C | 58% | 1024.1 hPa | - | - | - | - |
| 1776939100 | 17.78° C | 58% | 1024.4 hPa | - | - | - | - |
| 1776936396 | 16.67° C | 61% | 1024.9 hPa | - | - | - | - |
| 1776933691 | 15° C | 64% | 1025.1 hPa | - | - | - | - |
| 1776930987 | 13.33° C | 66% | 1025.4 hPa | - | - | - | - |
| 1776928283 | 11.67° C | 69% | 1025.6 hPa | - | - | - | - |
| 1776925578 | 10.56° C | 71% | 1025.3 hPa | - | - | - | - |
| 1776922874 | 7.22° C | 69% | 1025.3 hPa | - | - | - | - |
| 1776920169 | 6.11° C | 69% | 1025 hPa | - | - | - | - |
| 1776917465 | 5.56° C | 69% | 1024.6 hPa | - | - | - | - |
| 1776914760 | 6.11° C | 68% | 1024.5 hPa | - | - | - | - |
| 1776912056 | 6.11° C | 68% | 1024.4 hPa | - | - | - | - |
| 1776909352 | 6.67° C | 68% | 1024.3 hPa | - | - | - | - |
| 1776906647 | 6.67° C | 68% | 1024.3 hPa | - | - | - | - |
| 1776903943 | 7.22° C | 68% | 1024.2 hPa | - | - | - | - |
* Rain since midnight (hover to see other rain measurements)
** Current wind speed in m/s (hover to see current wind gust speed)